Weather History for Philadelphia, PA

Change the Weather History Date:

Saturday, February 16, 2013

  Actual Average Record
Temperature  
Mean Temperature 36 °F 36 °F  
Max Temperature 40 °F 44 °F 73 °F (1954)
Min Temperature 32 °F 28 °F 2 °F (1888)
Degree Days  
Heating Degree Days 29 29  
Month to date heating degree days 492 487  
Since 1 July heating degree days 2869 3150  
Cooling Degree Days 0 0  
Month to date cooling degree days 0 0  
Year to date cooling degree days 0 0  
Moisture  
Dew Point 27 °F    
Average Humidity 67    
Maximum Humidity 92    
Minimum Humidity 41    
Precipitation  
Precipitation 0.02 in 0.09 in 1.84 in (1873)
Month to date precipitation 1.27 1.51  
Year to date precipitation 4.61 4.54  
Snow  
Snow T in 0.30 in 16.00 in (2003)
Month to date snowfall 2.7 5.5  
Since 1 July snowfall 7.0 15.7  
Snow Depth 0.00 in    
Sea Level Pressure  
Sea Level Pressure 29.92 in    
Wind  
Wind Speed 11 mph (North)    
Max Wind Speed 22 mph    
Max Gust Speed 28 mph    
Visibility 9 miles    
Events Rain , Snow    
T = Trace of Precipitation, MM = Missing Value Source: NWS Daily Summary

Daily Weather History Graph

Daily Weather History Graph

Search for Another Location

Airport:

Trip Planner

Search our weather history database for the weather conditions in past years. The results will help you decide how hot, cold, wet, or windy it might be!

Date:

Astronomy

Feb. 16, 2013 Rise Set
Actual Time 6:52 AM EST 5:38 PM EST
Civil Twilight 6:24 AM EST 6:06 PM EST
Nautical Twilight 5:52 AM EST 6:37 PM EST
Astronomical Twilight 5:21 AM EST 7:09 PM EST
Moon 10:03 AM EST (2/16) No Moon Set
Length of Visible Light 11h 41m
Length of Day
10h 46m
Waxing Crescent, 39% of the Moon is Illuminated
Feb 16
Waxing Crescent
Feb 17
First Quarter
Feb 25
Full
Mar 4
Last Quarter
Mar 11
New

Hourly Weather History & Observations

Time (EST) Temp. Windchill Dew Point Humidity Pressure Visibility Wind Dir Wind Speed Gust Speed Precip Events Conditions
12:09 AM 39.2 °F 31.6 °F 35.6 °F 87% 30.01 in 7.0 mi NNW 12.7 mph - 0.00 in Rain Light Rain
12:46 AM 37.4 °F 32.8 °F 35.6 °F 93% 30.00 in 7.0 mi NW 5.8 mph - 0.01 in Rain Light Rain
12:54 AM 37.9 °F 33.5 °F 34.0 °F 86% 30.01 in 7.0 mi NNW 5.8 mph - 0.01 in Rain Light Rain
1:36 AM 37.4 °F 32.1 °F 33.8 °F 87% 30.00 in 10.0 mi NW 6.9 mph - 0.00 in   Overcast
1:54 AM 37.0 °F 31.0 °F 34.0 °F 89% 30.00 in 10.0 mi NW 8.1 mph - 0.00 in Rain Light Rain
2:08 AM 37.4 °F 31.4 °F 33.8 °F 87% 30.00 in 9.0 mi NW 8.1 mph - 0.00 in Rain Light Rain
2:35 AM 35.6 °F 30.7 °F 33.8 °F 93% 29.97 in 9.0 mi North 5.8 mph - 0.01 in Rain Light Rain
2:54 AM 36.0 °F 32.1 °F 33.1 °F 89% 29.96 in 9.0 mi North 4.6 mph - 0.01 in Rain Light Rain
3:29 AM 37.4 °F 32.1 °F 33.8 °F 87% 29.96 in 10.0 mi NNW 6.9 mph - 0.00 in   Overcast
3:54 AM 37.0 °F 31.6 °F 33.1 °F 86% 29.97 in 10.0 mi NNW 6.9 mph - 0.00 in   Overcast
4:07 AM 37.4 °F 31.4 °F 33.8 °F 87% 29.97 in 10.0 mi NNW 8.1 mph - N/A   Overcast
4:54 AM 37.0 °F 29.8 °F 33.1 °F 86% 29.96 in 10.0 mi North 10.4 mph - N/A   Overcast
5:09 AM 37.4 °F 30.3 °F 33.8 °F 87% 29.97 in 10.0 mi North 10.4 mph - N/A   Overcast
5:54 AM 37.0 °F 31.0 °F 33.1 °F 86% 29.96 in 10.0 mi North 8.1 mph - N/A   Overcast
6:54 AM 37.0 °F 30.4 °F 32.0 °F 82% 29.96 in 10.0 mi North 9.2 mph - N/A   Overcast
7:54 AM 36.0 °F 28.5 °F 30.9 °F 82% 29.97 in 10.0 mi NNE 10.4 mph - 0.00 in Snow Light Snow
8:20 AM 35.6 °F 28.6 °F 30.2 °F 81% 29.97 in 10.0 mi North 9.2 mph - 0.00 in   Overcast
8:54 AM 36.0 °F 26.7 °F 27.0 °F 70% 29.97 in 10.0 mi North 15.0 mph - 0.00 in   Overcast
9:54 AM 36.0 °F 27.1 °F 25.0 °F 64% 29.96 in 10.0 mi NNE 13.8 mph - N/A   Overcast
10:54 AM 39.0 °F 32.8 °F 25.0 °F 57% 29.95 in 10.0 mi NNE 9.2 mph 18.4 mph N/A   Overcast
11:54 AM 39.9 °F 35.8 °F 25.0 °F 55% 29.93 in 10.0 mi NNE 5.8 mph - N/A   Overcast
12:54 PM 39.0 °F 32.8 °F 21.9 °F 50% 29.91 in 10.0 mi North 9.2 mph - N/A   Overcast
1:54 PM 39.0 °F 33.4 °F 23.0 °F 53% 29.89 in 10.0 mi North 8.1 mph - N/A   Overcast
2:54 PM 37.9 °F 30.5 °F 23.0 °F 55% 29.89 in 10.0 mi NNW 11.5 mph - N/A   Overcast
3:31 PM 37.4 °F 30.3 °F 24.8 °F 60% 29.88 in 6.0 mi NNW 10.4 mph - 0.00 in Snow Light Snow
3:50 PM 37.4 °F 30.8 °F 24.8 °F 60% 29.87 in 10.0 mi North 9.2 mph - 0.00 in   Overcast
3:54 PM 37.0 °F 31.0 °F 25.0 °F 62% 29.87 in 10.0 mi NNE 8.1 mph 17.3 mph 0.00 in   Overcast
4:12 PM 37.4 °F 31.4 °F 24.8 °F 60% 29.88 in 8.0 mi North 8.1 mph - 0.00 in Snow Light Snow
4:54 PM 37.0 °F 29.3 °F 23.0 °F 57% 29.87 in 8.0 mi North 11.5 mph 18.4 mph 0.00 in   Overcast
5:54 PM 35.1 °F 27.9 °F 23.0 °F 61% 29.88 in 8.0 mi North 9.2 mph - 0.00 in Snow Light Snow
6:54 PM 35.1 °F 25.9 °F 19.0 °F 52% 29.86 in 9.0 mi North 13.8 mph - 0.00 in   Overcast
7:02 PM 35.6 °F 27.1 °F 19.4 °F 52% 29.85 in 10.0 mi North 12.7 mph - N/A   Overcast
7:54 PM 35.1 °F 25.2 °F 17.1 °F 48% 29.84 in 10.0 mi North 16.1 mph 20.7 mph N/A   Overcast
8:54 PM 34.0 °F 23.8 °F 16.0 °F 48% 29.84 in 10.0 mi North 16.1 mph - N/A   Overcast
9:54 PM 33.1 °F 23.0 °F 14.0 °F 46% 29.82 in 10.0 mi North 15.0 mph 25.3 mph N/A   Overcast
10:54 PM 33.1 °F 23.4 °F 12.9 °F 43% 29.80 in 10.0 mi North 13.8 mph - N/A   Overcast
11:54 PM 32.0 °F 20.5 °F 12.0 °F 44% 29.78 in 10.0 mi NNW 18.4 mph - N/A   Overcast